ACA427 CYUL-CYYZ

Flight info

Callsign ACA427
Flight time N/A
Altitude 34000
Route BOBKI DCT MELTI DCT TORNI RAGID6
Aircraft B77W/H-SDE1E2E3FGHIJ2J3J4J5M1RWXY/LB1D1

Departure

Time 2026-05-04 01:19
Airport Montreal / Pierre Elliott Trudeau International Airport (CYUL)

Arrival

Time N/A
Airport Toronto Pearson International Airport (CYYZ)
Time Latitude Longitude Altitude Speed Heading
2026-05-04 00:45 45.45928 -73.75136 110 ft 0 kts 178°
2026-05-04 00:59 45.45932 -73.75137 110 ft 3 kts 177°
2026-05-04 00:59 45.45955 -73.75138 107 ft 3 kts 178°
2026-05-04 01:00 45.45975 -73.75139 110 ft 3 kts 183°
2026-05-04 01:00 45.45997 -73.75133 108 ft 3 kts 211°
2026-05-04 01:00 45.46011 -73.75113 107 ft 3 kts 256°
2026-05-04 01:00 45.46013 -73.75082 107 ft 3 kts 275°
2026-05-04 01:01 45.46012 -73.75059 107 ft 0 kts 269°
2026-05-04 01:04 45.46011 -73.75073 107 ft 2 kts 268°
2026-05-04 01:04 45.46010 -73.75099 107 ft 3 kts 265°
2026-05-04 01:04 45.46008 -73.75133 107 ft 4 kts 265°
2026-05-04 01:05 45.46005 -73.75176 109 ft 5 kts 267°
2026-05-04 01:05 45.46009 -73.75226 110 ft 5 kts 283°
2026-05-04 01:05 45.46025 -73.75278 110 ft 6 kts 297°
2026-05-04 01:05 45.46044 -73.75330 109 ft 5 kts 300°
2026-05-04 01:06 45.46077 -73.75363 108 ft 7 kts 344°
2026-05-04 01:06 45.46112 -73.75363 107 ft 7 kts 12°
2026-05-04 01:06 45.46142 -73.75296 109 ft 7 kts 82°
2026-05-04 01:06 45.46144 -73.75247 106 ft 8 kts 88°
2026-05-04 01:07 45.46147 -73.75167 107 ft 8 kts 88°
2026-05-04 01:07 45.46149 -73.75089 108 ft 8 kts 88°
2026-05-04 01:07 45.46151 -73.75009 109 ft 8 kts 88°
2026-05-04 01:07 45.46154 -73.74927 109 ft 9 kts 88°
2026-05-04 01:08 45.46157 -73.74832 109 ft 10 kts 87°
2026-05-04 01:08 45.46160 -73.74725 109 ft 11 kts 88°
2026-05-04 01:08 45.46161 -73.74629 108 ft 8 kts 94°
2026-05-04 01:08 45.46140 -73.74567 107 ft 7 kts 123°
2026-05-04 01:09 45.46130 -73.74500 108 ft 8 kts 93°
2026-05-04 01:09 45.46130 -73.74419 108 ft 9 kts 88°
2026-05-04 01:09 45.46133 -73.74327 108 ft 10 kts 88°
2026-05-04 01:09 45.46136 -73.74227 108 ft 10 kts 87°
2026-05-04 01:10 45.46139 -73.74125 109 ft 10 kts 86°
2026-05-04 01:10 45.46151 -73.74049 110 ft 7 kts 63°
2026-05-04 01:10 45.46188 -73.73994 110 ft 9 kts 43°
2026-05-04 01:10 45.46276 -73.73878 110 ft 21 kts 43°
2026-05-04 01:11 45.46382 -73.73739 110 ft 21 kts 43°
2026-05-04 01:11 45.46488 -73.73600 112 ft 21 kts 43°
2026-05-04 01:11 45.46594 -73.73461 112 ft 21 kts 42°
2026-05-04 01:11 45.46700 -73.73322 113 ft 21 kts 43°
2026-05-04 01:12 45.46805 -73.73185 114 ft 21 kts 43°
2026-05-04 01:12 45.46911 -73.73045 118 ft 21 kts 43°
2026-05-04 01:12 45.47017 -73.72906 117 ft 21 kts 43°
2026-05-04 01:12 45.47121 -73.72770 118 ft 20 kts 43°
2026-05-04 01:13 45.47222 -73.72638 120 ft 20 kts 43°
2026-05-04 01:13 45.47322 -73.72507 119 ft 20 kts 43°
2026-05-04 01:13 45.47422 -73.72375 119 ft 20 kts 43°
2026-05-04 01:13 45.47523 -73.72244 120 ft 20 kts 42°
2026-05-04 01:14 45.47622 -73.72113 121 ft 18 kts 43°
2026-05-04 01:14 45.47715 -73.71991 123 ft 18 kts 43°
2026-05-04 01:14 45.47806 -73.71873 123 ft 16 kts 42°
2026-05-04 01:14 45.47856 -73.71808 122 ft 3 kts 45°
2026-05-04 01:15 45.47873 -73.71753 125 ft 6 kts 83°
2026-05-04 01:15 45.47858 -73.71711 121 ft 3 kts 127°
2026-05-04 01:15 45.47857 -73.71709 121 ft 0 kts 127°
2026-05-04 01:16 45.47857 -73.71708 121 ft 0 kts 127°
2026-05-04 01:16 45.47852 -73.71699 125 ft 3 kts 127°
2026-05-04 01:16 45.47837 -73.71673 123 ft 4 kts 128°
2026-05-04 01:17 45.47814 -73.71635 124 ft 8 kts 132°
2026-05-04 01:17 45.47777 -73.71577 125 ft 7 kts 132°
2026-05-04 01:17 45.47753 -73.71554 125 ft 3 kts 162°
2026-05-04 01:17 45.47732 -73.71564 124 ft 4 kts 221°
2026-05-04 01:18 45.47729 -73.71570 124 ft 0 kts 223°
2026-05-04 01:18 45.47727 -73.71571 125 ft 2 kts 223°
2026-05-04 01:18 45.47581 -73.71765 125 ft 68 kts 222°
2026-05-04 01:18 45.47011 -73.72510 120 ft 150 kts 223°
2026-05-04 01:19 45.46131 -73.73652 519 ft 176 kts 223°
2026-05-04 01:19 45.45230 -73.74814 1541 ft 177 kts 223°
2026-05-04 01:19 45.44315 -73.75974 2470 ft 177 kts 224°
2026-05-04 01:19 45.43375 -73.77125 3295 ft 179 kts 224°
2026-05-04 01:20 45.42388 -73.78308 3909 ft 196 kts 224°
2026-05-04 01:20 45.41261 -73.79666 4176 ft 229 kts 224°
2026-05-04 01:20 45.40283 -73.81529 4589 ft 244 kts 255°
2026-05-04 01:20 45.40206 -73.83927 5480 ft 245 kts 276°
2026-05-04 01:21 45.40374 -73.86371 6443 ft 249 kts 275°
2026-05-04 01:21 45.40507 -73.88818 7569 ft 247 kts 275°
2026-05-04 01:21 45.40618 -73.91259 8657 ft 248 kts 275°
2026-05-04 01:21 45.40711 -73.93684 9699 ft 249 kts 275°
2026-05-04 01:22 45.40794 -73.96176 10527 ft 258 kts 275°
2026-05-04 01:22 45.40875 -73.98868 10849 ft 288 kts 275°
2026-05-04 01:22 45.40956 -74.01871 11218 ft 315 kts 274°
2026-05-04 01:22 45.41029 -74.05044 12115 ft 326 kts 274°
2026-05-04 01:23 45.41096 -74.08305 13229 ft 334 kts 274°
2026-05-04 01:23 45.41160 -74.11643 14298 ft 340 kts 274°
2026-05-04 01:23 45.41223 -74.15031 15383 ft 345 kts 274°
2026-05-04 01:23 45.41286 -74.18474 16452 ft 350 kts 274°
2026-05-04 01:24 45.41348 -74.21973 17525 ft 356 kts 274°
2026-05-04 01:24 45.41411 -74.25535 18533 ft 362 kts 274°
2026-05-04 01:24 45.41473 -74.29148 19475 ft 367 kts 274°
2026-05-04 01:24 45.41536 -74.32797 20439 ft 371 kts 274°
2026-05-04 01:25 45.41597 -74.36488 21379 ft 376 kts 274°
2026-05-04 01:25 45.41631 -74.40237 22283 ft 382 kts 271°
2026-05-04 01:25 45.41417 -74.44040 23167 ft 389 kts 265°
2026-05-04 01:25 45.40933 -74.47823 23919 ft 396 kts 260°
2026-05-04 01:26 45.40284 -74.51653 24650 ft 401 kts 259°
2026-05-04 01:26 45.39617 -74.55530 25368 ft 406 kts 259°
2026-05-04 01:26 45.38945 -74.59450 26087 ft 410 kts 259°
2026-05-04 01:26 45.38269 -74.63417 26787 ft 415 kts 259°
2026-05-04 01:27 45.37589 -74.67426 27464 ft 419 kts 259°
2026-05-04 01:27 45.36903 -74.71478 28121 ft 424 kts 259°
2026-05-04 01:27 45.36210 -74.75573 28770 ft 428 kts 259°
2026-05-04 01:27 45.35510 -74.79708 29402 ft 432 kts 259°
2026-05-04 01:28 45.34800 -74.83880 29972 ft 436 kts 259°
2026-05-04 01:28 45.34084 -74.88082 30458 ft 440 kts 259°
2026-05-04 01:28 45.33357 -74.92320 30996 ft 441 kts 258°
2026-05-04 01:28 45.32626 -74.96555 31591 ft 441 kts 258°
2026-05-04 01:29 45.31894 -75.00785 32201 ft 441 kts 258°
2026-05-04 01:29 45.31160 -75.05019 32787 ft 441 kts 258°
2026-05-04 01:29 45.30433 -75.09202 33338 ft 442 kts 258°
2026-05-04 01:29 45.29696 -75.13439 33813 ft 444 kts 258°
2026-05-04 01:30 45.28949 -75.17728 33788 ft 449 kts 258°
2026-05-04 01:30 45.27460 -75.26237 33791 ft 439 kts 258°
2026-05-04 01:31 45.25980 -75.34651 33806 ft 439 kts 258°
2026-05-04 01:31 45.24492 -75.43084 33801 ft 440 kts 258°
2026-05-04 01:32 45.23004 -75.51471 33794 ft 441 kts 258°
2026-05-04 01:32 45.21499 -75.59919 33798 ft 441 kts 258°
2026-05-04 01:33 45.19989 -75.68350 33797 ft 441 kts 258°
2026-05-04 01:33 45.18474 -75.76769 33798 ft 440 kts 257°
2026-05-04 01:34 45.16959 -75.85154 33799 ft 439 kts 257°
2026-05-04 01:34 45.15437 -75.93538 33803 ft 438 kts 257°
2026-05-04 01:35 45.13925 -76.01835 33813 ft 438 kts 257°
2026-05-04 01:35 45.12396 -76.10187 33814 ft 438 kts 257°
2026-05-04 01:36 45.10861 -76.18534 33809 ft 437 kts 257°
2026-05-04 01:36 45.08892 -76.26677 33820 ft 441 kts 245°
2026-05-04 01:37 45.05836 -76.34207 33817 ft 442 kts 242°
2026-05-04 01:37 45.02735 -76.41723 33823 ft 442 kts 243°
2026-05-04 01:38 44.99701 -76.49286 33824 ft 442 kts 243°
2026-05-04 01:38 44.96710 -76.56823 33816 ft 442 kts 244°
2026-05-04 01:39 44.93695 -76.64414 33832 ft 442 kts 244°
2026-05-04 01:39 44.90686 -76.71964 33832 ft 442 kts 244°
2026-05-04 01:40 44.87668 -76.79511 33834 ft 441 kts 243°
2026-05-04 01:40 44.84648 -76.87046 33841 ft 441 kts 243°
2026-05-04 01:41 44.81624 -76.94572 33825 ft 441 kts 244°
2026-05-04 01:41 44.78592 -77.02087 33835 ft 441 kts 244°
2026-05-04 01:42 44.75553 -77.09602 33861 ft 442 kts 244°
2026-05-04 01:42 44.72545 -77.17017 33830 ft 423 kts 244°
2026-05-04 01:42 44.71113 -77.20536 33827 ft 407 kts 244°
2026-05-04 01:43 44.69722 -77.23954 33833 ft 402 kts 244°